CZ-6A DEB, 61478

Orbit data source: Space-Track

CZ-6A DEB, 61478 is space debris in LEO originally from a launch on Tue, 06 Aug 2024 UTC launched from the Taiyaun Space Center, China (TSC). Debris objects in space refer to the collection of defunct objects orbiting the Earth. Examples of debris include non-operational satellites, rocket bodies, and fragments generated from explosions, collisions, or faulty payload assembly.

Loading next visibility...
CZ-6A DEB details
Identifier
61478, 2024-140AAL
Orbit
LEO
Last TLE update1 day ago
Origin
Flag of CNCNSA (CN / PRC)
ManufacturerSAST
MissionSpacecraft
Bus & MotorUnknown
MassUnknown
Launch date (UTC)
2024-08-06 (6 months ago)
Launch vehicleUnknown
Launch site
Taiyaun Space Center, China (TSC)
Object type
Payload
Rocket body
Debris
Shape & HBRUnknown
Radar Cross SectionSmall (<0.1 m²)

Expand to show TLE details & history

TLE from 1 day ago
0 CZ-6A DEB
1 61478U 24140AAL 25035.07674628  .00066861  00000-0  76000-2 0  9994
2 61478  89.0844 330.9703 0095685 142.5177 218.2772 14.82644887 22494
Epoch: 2025-02-04T01:50Z
Definitive object data (Epoch: 2025-02-04T01:50:30.878Z)
Latitude-0.00006°
Longitude168.85442°
Altitude676.96 km
Speed7.49 km/s
True Right ascension22h 03m 52s
True Declination0° 00' 00"
Sunlit
Object was in daylight at TLE epoch
Visualization TLE readout
Latitude-11.83028°
Longitude168.52438°
Altitude683.551 km
Speed7.483 km/s
Apparent Right ascension21h 36m 10s
Apparent Declination-25° 12' 59"
Sunlit
Object is in daylight
Visualization observer readout
Local Sidereal Time08:58:52
Azimuth329.212° NNW
Elevation-73.354°
Doppler factor1
Orbital elements
Apogee altitude684.79 km
Perigee altitude550.908 km
Semi-major axis6,995.986 km
Eccentricity0.0095685
Inclination89.0844°
RAAN330.9703°
Arg. of periapsis142.5177°
True anomaly217.60431°
Mean anomaly218.2772°
Eccentric anomaly217.94012°
Mean motion3.70911 °/min
BSTAR0.0076
Orbital period97.06 mins
Loading maneuver chart data...
Loading historical data...
Loading historical data...
Loading historical data...
Loading historical data...
Loading historical data...
Loading historical data...
Loading historical data...

CZ-6A DEB Visibility forecast

Observer location: undefined°, undefined

Span
Click to sort rows by Start time (UTC) header in descending order
Start Az.
Max El. time (UTC)
Max El. Az.
Max El.
End time (UTC)
End Az.
7 mins2025-02-05 07:33:37.017Z12.811° NNE2025-02-05 07:37:37.017Z99.544° ESE36.636°2025-02-05 07:40:37.017Z161.163° S
6 mins2025-02-05 20:05:37.017Z186.456° SSW2025-02-05 20:07:37.017Z214.605° SW42.749°2025-02-05 20:11:37.017Z354.611° N
|